THOR ABLESTAR DEB, 355

Orbit data source: Space-Track

THOR ABLESTAR DEB, 355 is space debris in LEO originally from a launch on Thu, 29 Jun 1961 UTC launched from the Air Force Eastern Test Range (AFETR). Debris objects in space refer to the collection of defunct objects orbiting the Earth. Examples of debris include non-operational satellites, rocket bodies, and fragments generated from explosions, collisions, or faulty payload assembly.

Loading next visibility...
Identifier
355, 1961-015DV
Orbit
LEO
Country
Flag of USUS
Related business
Manufacturer
Unknown
Mission
Spacecraft
Bus & Motor
Unknown
Mass
Unknown
Launch date (UTC)
1961-06-29 (64 years ago)
Launch vehicle
Unknown
Launch site
Air Force Eastern Test Range (AFETR)
Object type
Payload
Rocket body
Debris
Shape & HBR
Unknown
Radar Cross Section
Medium (>0.1 m² and <1 m²)

Expand to show TLE details & history
Last TLE update: 1 day ago

TLE from 1 day ago
0 THOR ABLESTAR DEB
1 00355U 61015DV  25260.33470115  .00000530  00000-0  10245-2 0  9997
2 00355  67.2245 243.1677 0235494  38.5247  28.3482 13.33781156112635
Epoch: 2025-09-17T08:01Z
TLE epoch observation values (Epoch: 2025-09-17T08:01:58.179Z)
Latitude
58.98776°
Longitude
170.17286°
Altitude
987.007 km
Speed
7.44 km/s
True Right ascension
19h 08m 42s
True Declination
58° 50' 25"
Sunlit
Object was in daylight at epoch
Visualization orbit readout
Latitude
Unknown
Longitude
Unknown
Altitude
Unknown
Speed
Unknown
Apparent Right ascension
Unknown
Apparent Declination
Unknown
Sunlit
N/A
Visualization observer readout
Local Sidereal Time
07:52:00
Azimuth
Unknown
Elevation
Unknown
Doppler factor
Unknown
Orbital elements
Apogee altitude
1,307.759 km
Perigee altitude
954.091 km
Semi-major axis
7,509.062 km
Eccentricity
0.02355
Inclination
67.2245°
RAAN
243.1677°
Arg. of periapsis
38.5247°
True anomaly
29.66348°
Mean anomaly
28.3482°
Eccentric anomaly
29.00239°
Mean motion
3.33553 °/min
Orbital period
107.93 mins
BSTAR
0.0010245
Loading maneuver chart data...
Computing Atmospheric mass density...

Documentation

Showing up to 5 results
|